CT1AKV-10 Estrada Real PT current weather conditions

sailwx.info

Wind from 010 at 4 knots gusting 9

Air temperature 8.9° C
Dewpoint -20.0° C

Last reported at 2017-Feb-20 07:45 UTC.
Time now 2017-Feb-20 08:54 UTC

Location: N 39°11' W 008°44'.
View on Google Maps.

See reports from other nearby stations

  
Tides and Currents Weather Stations Pressure Air Temp Water Temp Dewpoint Dewpoint Depression Visibility Wind Speed Wind Dir Waves Ship Positions
date/time (UTC)wind fromknots sea level pressurealtimeterstation pressurevisibilityair tempwater tempwave heightnotes
2017-Feb-20 07:45 010 4 gusting 9 8.9
2017-Feb-20 07:30 020 3 gusting 13 7.8
2017-Feb-20 07:15 015 2 gusting 6 7.8
2017-Feb-20 07:00 023 2 gusting 6 7.8
2017-Feb-20 06:45 015 2 gusting 6 7.8
2017-Feb-20 06:30 347 1 gusting 5 7.2
2017-Feb-20 06:15 355 1 gusting 4 7.2
2017-Feb-20 06:00 352 0 gusting 3 7.8
2017-Feb-20 05:45 034 1 gusting 4 8.3
2017-Feb-20 05:30 062 0 gusting 3 8.3
2017-Feb-20 05:15 046 1 gusting 3 8.3
2017-Feb-20 05:00 051 0 gusting 3 8.3
2017-Feb-20 04:45 009 0 gusting 3 8.3
2017-Feb-20 04:30 012 1 gusting 5 8.9
2017-Feb-20 04:00 018 0 gusting 4 8.3
2017-Feb-20 03:45 004 0 gusting 3 7.8
2017-Feb-20 03:30 021 7.8
2017-Feb-20 03:15 044 0 gusting 3 8.3
2017-Feb-20 03:00 047 0 gusting 2 7.8
2017-Feb-20 02:45 044 0 gusting 2 8.3
2017-Feb-20 02:30 059 1 gusting 4 8.3
2017-Feb-20 02:00 037 0 gusting 3 10.6
2017-Feb-20 01:45 334 2 gusting 5 11.1
2017-Feb-20 01:30 358 3 gusting 6 11.7
2017-Feb-20 01:15 358 3 gusting 9 11.7
2017-Feb-20 01:00 342 3 gusting 8 11.1
2017-Feb-20 00:45 357 2 gusting 6 10.6
2017-Feb-20 00:30 342 1 gusting 6 10.6
2017-Feb-20 00:15 048 10.6
2017-Feb-20 00:00 351 0 gusting 2 10.6
2017-Feb-19 23:30 356 0 gusting 3 10.6
2017-Feb-19 23:15 337 10.6
2017-Feb-19 23:00 336 0 gusting 2 11.1
2017-Feb-19 22:45 002 0 gusting 3 11.1
2017-Feb-19 22:30 355 11.1
2017-Feb-19 22:15 334 0 gusting 3 11.1
2017-Feb-19 22:00 355 11.1
2017-Feb-19 21:45 354 11.1
2017-Feb-19 21:30 351 11.7
2017-Feb-19 21:15 355 12.2
2017-Feb-19 21:00 007 0 gusting 3 13.3
2017-Feb-19 20:45 002 1 gusting 6 13.9
2017-Feb-19 20:30 036 1 gusting 3 13.9
2017-Feb-19 20:15 007 0 gusting 4 13.9
2017-Feb-19 20:00 026 0 gusting 3 13.3
2017-Feb-19 19:30 034 0 gusting 5 14.4
2017-Feb-19 19:15 052 0 gusting 3 14.4
2017-Feb-19 19:00 028 1 gusting 3 15.0
2017-Feb-19 18:30 026 1 gusting 4 15.6
2017-Feb-19 18:15 033 1 gusting 5 15.6
2017-Feb-19 18:00 038 1 gusting 3 16.1
2017-Feb-19 17:45 020 1 gusting 5 16.7
2017-Feb-19 17:30 040 2 gusting 6 17.2
2017-Feb-19 17:15 024 3 gusting 9 17.2
2017-Feb-19 16:45 029 4 gusting 12 18.3
2017-Feb-19 16:30 015 3 gusting 8 17.8
2017-Feb-19 16:00 034 3 gusting 9 18.3
2017-Feb-19 15:45 043 4 gusting 11 18.3
2017-Feb-19 15:15 069 4 gusting 10 20.6
2017-Feb-19 15:00 056 5 gusting 13 19.4
2017-Feb-19 14:45 041 6 gusting 15 18.3
2017-Feb-19 14:30 061 6 gusting 15 19.4
2017-Feb-19 14:15 038 4 gusting 11 20.0
2017-Feb-19 14:00 050 6 gusting 13 19.4
2017-Feb-19 13:45 055 6 gusting 14 18.9
2017-Feb-19 13:00 037 5 gusting 15 18.9
2017-Feb-19 12:45 032 5 gusting 13 18.3
2017-Feb-19 12:00 050 5 gusting 14 17.8
2017-Feb-19 11:45 064 5 gusting 13 17.2
2017-Feb-19 11:30 036 6 gusting 13 16.7
2017-Feb-19 11:00 030 4 gusting 13 16.1
2017-Feb-19 10:45 029 4 gusting 9 16.1
2017-Feb-19 10:30 014 3 gusting 7 15.0
2017-Feb-19 10:15 025 5 gusting 12 13.9
2017-Feb-19 10:00 017 5 gusting 10 13.3
2017-Feb-19 09:45 028 3 gusting 8 13.3
2017-Feb-19 09:30 016 4 gusting 9 12.2
2017-Feb-19 09:15 021 4 gusting 9 10.6
2017-Feb-19 09:00 358 3 gusting 10 8.9
2017-Feb-19 08:45 013 3 gusting 6 9.4
2017-Feb-19 08:30 358 3 gusting 7 8.3
2017-Feb-19 08:15 013 2 gusting 6 7.2
2017-Feb-19 08:00 016 1 gusting 5 6.7
2017-Feb-19 07:45 008 1 gusting 5 6.7
2017-Feb-19 07:30 003 2 gusting 6 6.7
2017-Feb-19 07:15 349 1 gusting 4 6.7
2017-Feb-19 07:00 026 1 gusting 4 6.1
2017-Feb-19 06:45 028 0 gusting 3 6.1
2017-Feb-19 06:30 354 0 gusting 4 6.1
2017-Feb-19 06:15 008 5.6
2017-Feb-19 06:00 6.1
2017-Feb-19 05:45 033 5.6
2017-Feb-19 05:30 5.6
2017-Feb-19 05:15 5.6
2017-Feb-19 05:00 5.6
2017-Feb-19 04:45 6.1
2017-Feb-19 04:30 6.1
2017-Feb-19 04:15 6.1
2017-Feb-19 04:00 6.7
2017-Feb-19 03:45 313 6.7
2017-Feb-19 03:30 7.2
2017-Feb-19 03:15 005 0 gusting 2 7.2
2017-Feb-19 03:00 342 1 gusting 3 7.2
2017-Feb-19 02:45 330 1 gusting 5 7.8
2017-Feb-19 02:30 312 1 gusting 6 7.8
2017-Feb-19 02:15 326 1 gusting 4 7.8
2017-Feb-19 02:00 347 1 gusting 4 8.3
2017-Feb-19 01:45 318 1 gusting 3 8.3
2017-Feb-19 01:30 320 2 gusting 6 8.9
2017-Feb-19 01:15 321 1 gusting 3 8.9
2017-Feb-19 01:00 303 1 gusting 3 9.4
2017-Feb-19 00:45 357 0 gusting 3 9.4
2017-Feb-19 00:30 331 2 gusting 6 10.0
2017-Feb-19 00:15 337 2 gusting 7 10.0
2017-Feb-19 00:00 315 2 gusting 9 10.0
2017-Feb-18 23:45 324 2 gusting 6 9.4
2017-Feb-18 23:30 278 1 gusting 6 9.4
2017-Feb-18 23:15 288 1 gusting 4 9.4
2017-Feb-18 23:00 321 0 gusting 2 9.4
2017-Feb-18 22:45 337 0 gusting 3 9.4
2017-Feb-18 22:30 045 8.3
2017-Feb-18 22:15 8.3
2017-Feb-18 22:00 268 8.9
2017-Feb-18 21:45 294 0 gusting 3 9.4
2017-Feb-18 21:30 001 0 gusting 3 9.4
2017-Feb-18 21:15 301 2 gusting 6 9.4
2017-Feb-18 21:00 287 1 gusting 4 9.4
2017-Feb-18 20:45 315 0 gusting 3 10.0
2017-Feb-18 20:30 297 1 gusting 5 10.0
2017-Feb-18 20:15 323 1 gusting 6 10.6
2017-Feb-18 20:00 297 2 gusting 6 10.6
2017-Feb-18 19:45 307 3 gusting 7 11.1
2017-Feb-18 19:30 288 3 gusting 10 11.1
2017-Feb-18 19:15 315 3 gusting 7 11.1
2017-Feb-18 19:00 316 1 gusting 6 11.1
2017-Feb-18 18:45 299 3 gusting 6 11.7
2017-Feb-18 18:30 310 4 gusting 9 11.7
2017-Feb-18 18:15 301 3 gusting 8 12.2
2017-Feb-18 18:00 302 5 gusting 12 12.8
2017-Feb-18 17:45 310 5 gusting 13 13.3
2017-Feb-18 17:30 310 5 gusting 13 13.9
2017-Feb-18 17:15 317 5 gusting 12 14.4
2017-Feb-18 17:00 326 4 gusting 11 15.6
2017-Feb-18 16:45 293 6 gusting 14 15.6
2017-Feb-18 16:30 325 4 gusting 9 16.1
2017-Feb-18 16:15 305 5 gusting 11 17.2
2017-Feb-18 16:00 323 5 gusting 13 17.8
2017-Feb-18 15:45 316 5 gusting 14 18.3
2017-Feb-18 15:30 292 6 gusting 13 19.4
2017-Feb-18 15:15 303 5 gusting 12 18.9
2017-Feb-18 15:00 302 5 gusting 14 17.2
2017-Feb-18 14:45 302 4 gusting 9 18.3
2017-Feb-18 14:30 325 3 gusting 8 17.8
2017-Feb-18 14:15 316 5 gusting 10 17.2
2017-Feb-18 14:00 335 4 gusting 9 17.2
2017-Feb-18 13:45 320 6 gusting 13 17.2
2017-Feb-18 13:30 314 6 gusting 13 18.3
2017-Feb-18 13:15 319 5 gusting 13 17.8
2017-Feb-18 13:00 318 5 gusting 11 18.3
2017-Feb-18 12:45 331 5 gusting 13 17.8
2017-Feb-18 12:30 319 4 gusting 10 16.7
2017-Feb-18 12:15 329 4 gusting 9 16.1
2017-Feb-18 12:00 299 4 gusting 11 15.6
2017-Feb-18 11:45 319 4 gusting 12 16.1
2017-Feb-18 11:30 300 4 gusting 9 16.7
2017-Feb-18 11:15 306 2 gusting 8 15.6
2017-Feb-18 11:00 282 2 gusting 6 15.6
2017-Feb-18 10:45 323 1 gusting 5 16.1
2017-Feb-18 10:30 299 1 gusting 5 14.4
2017-Feb-18 10:15 319 13.9
2017-Feb-18 10:00 316 13.3
2017-Feb-18 09:45 313 12.8
2017-Feb-18 09:30 351 0 gusting 3 12.8
2017-Feb-18 09:15 001 12.8
2017-Feb-18 09:00 007 11.1
2017-Feb-18 08:45 024 10.6
2017-Feb-18 08:30 003 0 gusting 3 10.6
2017-Feb-18 08:15 316 0 gusting 4 10.6
2017-Feb-18 08:00 308 0 gusting 3 10.6